Wind_Speed
22 22 22 22 22 22 23 23 24 25 26 26 27 26 26 26 26 26 27 28 29 30 31 33 35 37 37 38 39 41 42 42 41 42 40 38 41 43 40 39 37 37 38 38 38 37 36 36 36 37 38 40 41 41 41 40 40 40 41 43 45 44 42 42 40 40 39 37 35 33 32 30 27 23 24 23 18 16 14 12 10 8 7 10 11 11 12 12
22 23 23 23 23 23 23 23 23 24 24 26 27 27 27 27 27 27 28 28 29 29 30 31 33 34 35 36 37 39 40 40 41 40 39 40 42 41 39 39 37 36 36 34 35 36 36 35 35 36 37 38 39 39 39 40 40 41 42 45 47 46 44 42 41 40 38 35 33 33 31 27 24 23 24 21 14 11 10 8 7 6 8 12 14 12 12 11
22 23 23 24 24 24 25 24 25 25 24 25 26 27 28 28 28 27 28 28 29 29 30 31 31 32 33 34 35 37 38 38 39 37 38 41 41 39 38 39 37 36 34 32 33 35 36 36 36 37 37 38 39 38 39 39 40 41 42 45 46 44 41 41 40 38 35 33 33 32 30 26 23 24 24 19 11 7 4 3 4 7 9 11 13 14 12 10
23 23 23 24 24 24 25 25 26 26 26 27 27 27 27 28 28 28 28 28 29 29 30 30 31 31 31 32 33 35 36 36 37 36 36 38 39 39 37 36 36 36 33 31 32 34 35 36 36 37 37 38 38 38 39 40 40 41 43 45 43 40 40 39 37 35 33 32 33 31 29 25 24 25 23 18 9 3 2 2 4 8 9 10 13 14 12 10
24 24 24 24 25 25 25 26 25 25 26 26 27 28 29 28 28 28 29 29 29 29 29 29 30 30 30 29 31 32 32 32 33 35 35 35 36 38 37 34 35 35 33 32 32 33 35 36 36 37 38 39 38 40 41 39 39 41 43 42 40 39 38 35 33 32 31 31 32 30 29 25 24 25 23 18 9 3 3 3 6 9 8 8 10 12 11 11
25 25 26 26 27 27 28 28 28 27 26 25 25 26 27 28 27 27 28 28 29 29 28 29 29 30 29 28 29 30 29 27 26 28 30 32 33 35 36 34 34 34 34 34 34 34 34 36 37 38 39 39 39 41 40 38 39 41 41 40 39 39 36 30 30 30 29 30 30 28 27 25 26 27 24 20 11 6 6 6 7 11 10 9 10 10 10 9
25 26 27 27 28 28 28 28 28 28 27 26 24 23 23 24 25 26 25 26 28 28 28 28 28 30 29 28 28 29 30 27 22 24 25 27 31 33 35 35 34 34 35 35 34 34 35 36 38 38 38 38 39 40 39 37 39 41 41 40 39 37 33 30 29 29 29 29 28 26 26 26 27 27 26 23 15 9 8 8 9 12 12 12 11 10 9 8
25 26 26 27 27 27 27 27 26 26 25 24 24 22 22 22 22 23 24 25 26 27 27 27 28 29 29 28 28 29 29 22 20 28 27 23 26 31 34 35 36 35 36 37 35 35 36 37 38 37 37 38 38 38 37 37 40 43 42 40 38 36 32 30 30 30 30 28 26 26 27 26 27 28 28 25 18 12 10 10 10 11 13 15 13 12 10 9
25 25 25 26 26 26 26 25 25 24 23 22 22 22 22 22 22 22 23 24 24 26 26 26 27 29 30 28 28 30 24 17 22 30 29 24 24 28 32 35 36 36 37 38 37 36 37 38 37 36 36 36 37 37 37 39 41 42 42 40 38 36 33 31 32 32 31 29 26 26 27 26 26 27 28 26 22 15 12 12 10 9 12 15 15 12 11 10
24 24 24 25 25 25 25 25 25 25 24 23 23 23 23 24 24 23 23 22 23 25 25 26 27 29 30 28 30 28 18 17 24 28 28 28 26 27 31 34 36 37 37 37 37 37 37 37 35 35 35 35 37 37 37 40 41 39 38 39 38 36 34 34 33 33 33 31 28 26 24 23 24 27 26 26 25 18 14 13 11 9 9 12 12 11 12 11
23 23 24 24 25 25 25 26 26 25 25 25 25 26 27 27 26 26 25 23 23 25 26 27 28 30 30 30 32 25 16 18 22 25 28 29 29 28 30 33 35 36 37 38 37 37 36 36 36 37 36 36 37 37 38 40 39 37 35 37 39 37 36 36 35 34 33 32 30 28 25 21 22 26 26 26 26 22 18 15 12 10 10 10 10 11 11 10
23 23 24 24 24 24 25 25 26 26 25 26 27 28 29 29 28 27 26 25 24 25 27 29 30 30 30 33 30 17 14 19 19 22 28 30 30 30 30 32 33 34 36 37 37 36 35 36 38 39 37 36 36 33 35 39 38 36 36 35 36 38 39 38 36 34 32 31 29 27 26 25 23 23 24 26 26 24 22 18 14 11 11 11 11 11 9 9
23 23 23 23 23 23 23 24 24 25 25 26 28 29 30 29 28 26 25 25 25 25 26 28 30 30 31 34 24 14 17 19 15 18 26 32 33 32 32 31 32 33 35 37 37 36 35 37 40 41 39 37 37 32 30 35 38 36 35 36 34 35 40 39 36 35 32 30 27 23 24 27 23 20 22 25 25 25 24 20 16 14 13 13 13 12 11 12
23 23 23 23 23 23 23 24 24 24 24 25 26 28 29 28 27 26 24 24 24 25 25 26 28 29 32 31 19 15 19 17 17 19 25 34 34 33 33 32 32 33 35 36 37 36 36 39 40 40 40 39 38 36 28 26 34 36 33 35 36 33 36 38 36 36 34 30 27 22 24 28 22 19 22 22 22 24 25 21 18 15 13 13 13 13 13 15
23 23 23 23 23 24 24 23 23 23 23 23 25 27 28 28 27 26 25 24 24 25 25 26 27 28 33 30 19 17 17 16 21 21 23 31 34 34 34 34 33 34 36 36 37 38 37 40 42 41 42 40 36 37 31 22 26 34 32 31 36 34 33 36 35 36 34 30 28 23 24 28 22 20 22 20 19 23 23 21 19 15 13 13 12 13 15 17
23 23 24 24 24 24 24 23 23 23 23 23 25 27 27 28 28 27 27 26 25 26 27 27 27 28 31 27 19 18 17 17 21 21 21 26 32 36 35 35 35 33 35 37 38 39 40 41 42 41 41 42 39 36 33 26 22 30 34 30 33 36 33 32 31 33 33 29 29 26 23 26 22 20 22 19 17 21 21 20 17 14 12 11 11 13 16 17
23 24 24 24 24 24 24 22 22 23 23 23 25 26 26 28 29 28 27 26 25 25 26 27 27 29 30 23 18 17 15 17 20 19 18 22 29 36 37 35 34 34 34 36 38 40 42 42 42 42 41 42 43 37 31 31 29 28 32 30 26 31 34 31 29 28 31 30 29 29 27 26 22 20 22 19 16 19 19 17 15 14 12 11 11 13 15 17
23 24 24 23 23 24 22 21 22 23 23 23 24 26 28 29 29 27 25 24 23 22 24 24 24 27 27 21 21 21 17 18 20 17 15 20 26 33 38 36 34 35 34 35 38 39 41 41 40 41 42 43 45 43 35 31 34 30 28 30 24 24 32 33 29 24 26 31 30 29 29 28 24 20 19 18 19 20 18 17 15 15 15 13 13 13 15 16
23 24 24 23 22 22 21 19 21 23 23 23 24 26 28 27 25 24 23 22 22 21 22 22 22 25 24 19 19 22 18 18 21 20 18 18 23 30 36 37 36 36 36 37 38 39 40 39 40 43 47 50 48 50 40 23 27 31 25 29 28 24 28 32 31 22 20 27 31 31 29 28 27 23 18 17 20 21 19 18 18 17 17 16 15 15 16 16
23 24 25 24 22 21 20 19 21 23 23 23 25 26 26 23 21 21 21 21 21 22 22 23 23 26 26 22 22 26 23 18 19 19 19 20 22 29 35 38 37 36 38 38 37 37 39 39 45 50 50 52 48 47 42 21 18 28 25 25 28 25 22 25 29 23 15 19 26 29 28 26 25 23 20 19 20 21 21 21 20 19 17 15 14 15 16 15
22 23 24 24 22 20 19 20 22 23 23 24 25 26 24 22 22 23 24 24 21 20 20 20 23 26 24 21 21 27 29 27 22 14 16 22 24 27 35 40 39 38 40 38 35 34 37 41 49 51 47 48 46 44 43 28 17 24 24 22 26 27 21 18 22 24 19 17 19 22 25 25 22 22 23 23 23 23 22 21 20 19 17 15 15 17 17 16
22 23 23 23 22 20 20 21 23 23 23 23 25 25 22 21 22 23 26 28 23 20 19 17 20 24 21 17 18 24 30 32 29 19 15 19 24 27 32 40 42 40 39 37 35 34 38 45 47 46 44 43 43 42 42 35 22 21 23 21 23 27 25 18 17 21 21 19 17 17 21 22 21 21 23 24 24 22 21 21 20 21 21 19 18 18 19 18
23 23 23 22 22 20 19 20 22 23 22 22 24 23 21 21 22 23 24 28 26 20 16 14 16 19 17 15 17 23 30 33 32 25 20 20 23 26 30 39 43 40 39 39 40 38 37 40 42 41 41 41 40 39 40 38 28 21 21 22 21 23 25 19 16 18 19 18 18 16 17 19 20 21 24 23 23 23 21 21 22 24 24 20 19 19 19 20
23 23 23 22 22 21 19 19 21 22 21 21 22 22 21 21 21 23 23 28 27 16 9 11 14 16 15 16 18 23 29 33 33 28 26 25 22 24 29 35 41 42 41 40 41 40 32 29 36 39 37 37 37 36 39 41 36 26 20 21 20 20 21 18 15 17 19 17 17 16 15 19 23 23 24 25 25 26 24 23 23 24 24 21 20 20 19 19
24 23 23 22 21 21 19 18 20 20 20 20 21 20 21 21 21 21 22 27 26 12 6 12 14 12 10 11 15 19 24 31 34 29 29 30 24 24 27 30 38 43 43 40 38 40 31 20 28 37 36 35 34 35 39 41 39 33 25 22 19 18 18 16 14 16 18 16 17 18 12 14 25 28 27 27 27 28 27 25 24 23 24 23 22 20 19 19
25 24 23 23 22 21 19 18 18 19 19 19 20 19 19 19 20 20 22 23 19 9 8 14 13 7 4 6 11 15 19 26 31 29 29 31 28 25 25 27 36 41 43 40 34 37 34 20 20 32 37 36 33 33 37 39 38 36 32 26 21 19 18 17 16 12 12 14 15 19 14 11 20 27 27 28 28 28 28 26 25 24 24 24 22 20 20 20
25 24 24 23 22 22 21 17 16 18 19 18 18 18 17 17 18 19 18 13 9 8 14 15 8 5 4 5 8 10 11 13 20 27 29 30 30 27 25 27 32 37 40 38 31 32 36 26 18 26 34 36 35 33 35 38 37 35 34 30 24 21 18 18 16 10 8 12 13 15 16 13 17 24 25 26 28 29 30 29 27 26 25 24 23 22 22 23
25 25 26 25 24 23 23 18 16 17 17 17 18 17 17 16 15 17 12 4 5 10 14 12 5 5 6 5 4 4 5 3 6 18 27 29 30 27 26 27 29 33 37 38 32 25 31 33 22 22 31 35 36 35 34 35 33 32 33 31 27 23 19 16 14 11 9 10 11 12 13 10 13 23 26 23 26 29 31 32 28 26 26 25 25 25 25 25
26 28 28 29 26 24 24 20 17 16 16 16 17 17 17 15 14 13 6 1 6 12 12 10 9 8 7 4 3 4 10 6 2 10 24 30 30 27 26 25 27 29 31 37 32 15 17 31 26 20 28 33 35 34 32 31 30 31 31 30 27 22 20 17 12 12 13 9 13 16 13 7 9 20 24 20 24 30 32 31 28 26 26 25 25 25 26 26
27 29 30 31 29 26 23 19 17 16 15 14 15 15 15 14 13 8 1 3 10 12 10 11 13 12 9 5 2 6 14 9 2 13 26 30 29 26 23 22 24 25 24 29 30 14 8 22 28 22 24 29 31 32 29 28 28 30 30 27 23 17 14 14 10 11 11 8 15 21 17 10 6 14 20 20 24 28 28 28 27 26 25 25 26 26 26 26
29 29 29 30 28 26 23 18 16 15 14 13 13 14 14 14 10 2 2 8 14 11 11 15 16 14 10 7 6 4 11 11 7 14 26 30 27 25 23 22 23 23 19 22 28 21 11 18 30 29 23 22 26 30 29 27 28 29 29 27 21 14 10 9 9 11 8 4 12 19 18 14 9 14 18 18 20 23 25 27 26 25 25 25 27 28 27 26
28 28 28 27 25 23 21 17 14 14 14 14 12 13 13 10 6 6 6 10 10 9 14 19 20 18 14 10 8 6 7 11 10 13 23 30 27 27 27 26 28 25 20 24 29 26 19 20 27 29 25 22 23 29 29 26 29 29 30 31 19 8 8 6 5 7 5 3 8 10 11 12 15 23 24 18 19 23 25 25 24 25 24 25 27 27 27 27
27 27 25 25 22 19 18 15 12 13 14 14 13 13 10 5 3 7 11 11 9 13 19 20 21 22 18 11 9 8 8 12 13 11 19 29 27 26 27 26 30 25 17 24 31 28 22 17 22 26 27 28 26 31 35 32 33 32 33 35 21 6 5 6 3 1 1 5 12 12 8 7 11 19 22 20 21 23 23 23 23 26 26 26 27 26 26 26
28 27 24 22 20 16 14 12 11 12 14 14 13 12 8 4 6 10 13 15 16 21 22 21 21 19 14 10 9 10 11 13 15 12 15 25 26 26 28 28 29 22 14 22 29 29 23 13 20 29 27 32 32 30 37 37 34 32 31 32 27 12 5 5 3 2 3 5 10 12 8 5 7 13 17 18 21 23 23 24 25 26 28 27 26 26 25 25
28 26 23 21 19 15 11 11 12 13 15 15 13 12 9 7 10 12 14 17 21 25 25 24 19 12 9 6 9 11 12 14 17 15 12 20 27 27 29 30 29 21 16 21 24 28 26 10 16 28 24 29 34 28 32 35 31 31 29 28 30 21 9 6 6 7 8 6 6 9 8 5 8 13 18 18 19 22 23 24 26 25 26 26 25 24 23 23
27 25 22 20 19 15 11 10 12 13 15 15 14 14 14 13 14 14 16 19 21 24 26 24 16 9 6 3 9 10 12 13 17 17 11 16 25 27 28 29 29 22 18 23 23 25 25 10 11 24 20 21 31 30 30 32 28 29 32 28 28 24 13 7 6 6 8 5 6 8 9 11 11 12 19 21 17 19 23 23 23 22 22 23 21 20 20 20
26 23 20 19 18 15 11 9 9 11 14 16 16 17 19 19 17 16 18 20 20 23 25 22 13 7 3 4 9 10 10 11 16 18 11 11 19 25 28 27 27 24 18 21 24 22 23 14 12 24 23 16 23 28 29 30 28 29 32 28 21 19 17 11 4 2 4 2 5 9 11 15 14 10 17 23 19 20 24 22 20 19 17 19 20 19 19 19
27 23 20 19 17 15 12 9 9 10 13 17 19 21 22 20 19 18 18 18 19 22 23 18 10 4 2 4 8 10 11 10 15 18 12 10 12 21 31 27 25 26 19 17 21 19 20 16 11 22 25 18 18 25 27 29 30 26 26 29 23 15 16 15 6 2 3 2 2 6 10 13 18 16 15 19 21 23 25 23 21 20 17 18 20 20 19 18
27 22 19 18 17 15 13 11 10 11 14 18 21 22 21 21 21 19 17 17 18 19 19 15 7 6 5 4 8 11 13 10 14 17 12 11 9 14 30 30 25 26 19 18 20 18 18 15 10 20 26 21 22 29 33 34 31 24 22 31 30 17 16 21 13 4 3 3 2 3 4 8 17 20 15 15 20 23 26 24 22 20 18 18 20 20 19 19
26 22 18 18 17 15 14 12 10 11 15 19 22 22 21 23 21 16 14 15 17 16 16 13 7 8 7 4 10 13 15 9 11 15 11 14 12 10 25 32 26 23 19 19 21 17 17 15 12 20 27 26 29 36 38 38 36 29 27 36 33 18 18 22 18 14 6 1 3 3 2 8 16 17 16 17 20 21 22 21 19 19 19 19 20 20 20 19
25 22 18 18 19 17 16 15 12 12 17 19 21 21 21 22 19 15 12 12 13 13 13 12 8 7 4 5 10 14 18 10 10 13 9 16 17 9 22 33 26 22 19 19 22 17 14 12 13 24 32 33 33 35 35 35 37 33 28 35 34 21 20 17 10 17 14 4 3 3 1 11 19 18 16 18 20 21 19 17 18 19 20 21 20 20 19 18
24 23 19 17 19 19 17 16 14 14 18 18 19 20 19 19 18 15 12 9 9 10 10 9 6 6 2 6 8 14 20 12 9 14 8 12 16 7 17 33 27 20 18 19 23 18 11 8 12 24 34 30 22 24 29 29 33 33 23 26 32 25 24 20 9 11 16 9 6 2 1 10 20 21 18 16 18 21 19 17 17 19 22 22 20 19 18 17
23 23 22 17 19 21 19 18 17 17 18 18 18 18 15 15 15 12 10 9 8 8 9 7 4 6 3 8 12 16 20 12 10 15 7 7 14 9 14 32 29 18 16 20 23 19 11 7 8 15 23 24 17 17 23 25 29 35 28 23 31 30 26 23 14 12 15 12 7 1 1 8 18 22 19 14 15 20 20 16 15 18 22 20 18 18 17 16
21 22 23 18 18 22 21 20 21 18 18 19 17 16 15 13 12 10 8 8 7 7 7 4 1 4 3 9 15 19 18 11 12 17 10 8 14 12 16 31 30 21 20 21 21 18 11 6 8 12 13 15 13 11 19 26 30 37 36 28 28 31 27 22 18 15 13 14 13 6 3 8 14 18 19 15 13 16 20 17 14 16 19 17 17 17 16 16
21 21 23 18 16 23 24 22 23 20 20 21 19 20 21 18 12 7 7 5 4 5 5 5 4 4 6 9 14 18 15 11 13 18 14 9 10 12 18 28 30 26 23 17 12 11 10 4 5 10 10 10 11 11 21 33 35 36 40 36 29 29 29 26 22 16 10 11 15 12 9 11 12 13 16 17 14 13 17 18 15 16 17 18 17 16 16 17
22 21 23 19 16 22 26 24 23 22 22 22 22 23 24 22 17 8 5 5 3 4 4 5 5 6 7 8 13 15 13 12 13 16 15 9 8 12 17 26 31 29 24 15 8 7 9 7 5 6 11 18 21 18 21 31 35 33 36 39 35 30 28 27 23 17 12 10 13 17 16 15 14 15 15 16 15 12 15 18 16 16 17 18 17 16 16 17
23 21 24 23 18 21 26 26 25 24 23 23 22 22 20 18 19 14 8 5 5 6 5 3 5 9 8 8 11 12 11 12 12 15 14 9 9 11 16 27 33 31 25 16 11 8 7 9 8 4 7 17 22 19 18 23 30 31 31 34 36 33 29 27 25 20 16 11 10 15 19 17 15 16 17 18 18 16 15 16 16 17 18 17 16 17 16 16
23 20 22 23 20 21 26 28 28 27 25 22 21 21 18 15 17 18 12 5 3 5 6 5 7 9 9 8 9 9 10 11 12 13 13 9 9 11 19 31 34 31 27 19 13 10 7 7 8 3 3 13 19 18 19 20 23 28 29 29 32 33 31 28 25 22 20 16 12 10 14 16 14 13 15 18 20 20 20 20 18 18 19 18 17 17 16 15
23 21 20 20 19 21 25 28 29 28 25 21 19 19 18 13 13 17 13 4 2 4 6 7 8 6 6 7 7 7 9 9 9 11 12 10 11 16 23 31 29 27 27 23 17 13 9 8 6 4 2 13 18 17 18 19 23 27 28 28 29 29 29 26 24 23 22 22 20 14 12 13 13 13 14 15 18 20 21 24 22 21 21 20 18 17 15 13
25 24 22 19 19 20 24 27 30 29 25 19 16 16 16 12 11 13 11 5 5 5 6 7 6 4 4 5 5 7 7 6 8 10 9 10 16 22 24 26 27 27 28 24 19 16 13 11 4 7 6 10 18 19 17 18 23 27 28 28 28 26 27 26 24 23 23 24 24 20 17 14 11 12 14 14 16 18 19 22 25 23 22 20 17 15 13 11
23 23 23 21 20 20 23 27 29 29 28 23 17 15 15 14 12 12 9 5 5 7 8 8 7 6 6 8 8 6 5 5 8 10 10 15 19 23 24 25 29 31 28 23 19 17 16 11 5 7 8 10 21 21 18 20 25 28 29 30 29 27 28 29 26 23 21 22 22 20 19 15 8 8 12 13 15 18 19 21 25 25 22 19 16 14 11 10
20 21 22 22 21 21 23 26 27 28 29 25 20 15 14 11 10 11 9 4 4 7 9 8 8 7 7 8 8 7 5 2 9 11 11 14 20 25 27 29 32 32 28 23 18 15 13 10 7 6 6 12 23 22 22 25 22 23 30 33 29 26 25 26 27 24 20 19 18 19 20 15 8 6 9 10 12 16 19 21 25 26 22 18 14 12 11 10
Wind_Direction
319 318 315 313 311 309 307 304 301 298 295 294 292 290 289 288 287 285 283 281 279 275 272 268 265 262 260 258 256 253 251 249 248 248 247 242 240 240 239 237 236 236 236 236 237 236 235 233 232 232 232 233 234 234 235 236 236 236 237 238 239 241 244 249 254 257 261 264 265 265 265 265 264 259 254 254 257 260 252 244 248 250 241 218 200 196 193 191
323 320 318 316 314 312 309 306 302 299 296 294 292 291 289 287 286 284 283 282 280 279 276 273 269 266 263 260 258 256 252 249 247 247 247 243 240 239 238 238 237 236 235 234 235 235 233 231 229 229 229 229 230 230 230 231 232 232 235 237 240 243 248 253 256 258 259 261 262 262 260 259 257 252 247 247 252 253 243 231 234 239 228 206 187 191 198 196
324 321 320 318 317 315 313 310 306 303 299 294 291 289 287 287 285 284 283 281 280 278 277 276 273 270 266 262 260 258 255 251 248 245 245 244 242 239 237 237 237 237 235 232 232 233 231 229 227 226 226 226 227 227 227 227 228 230 233 236 241 246 249 251 252 254 256 257 256 255 255 253 249 247 243 244 246 237 216 174 211 226 217 212 206 206 210 209
325 324 323 321 320 318 316 313 309 306 303 298 294 290 286 285 284 283 282 280 279 278 277 276 275 273 269 266 262 259 256 254 250 245 243 243 243 240 236 234 235 236 234 231 229 229 228 227 224 224 224 224 224 225 225 224 226 228 231 236 242 245 246 247 249 252 253 252 251 251 251 248 243 242 241 240 232 191 162 159 217 225 225 236 230 216 206 199
330 328 327 325 324 323 321 318 314 311 306 302 298 294 290 286 282 281 280 279 278 277 277 275 274 273 271 268 265 261 258 257 254 248 244 241 240 240 236 232 232 232 230 229 226 224 225 224 222 221 222 222 222 223 224 223 225 228 232 236 240 241 243 245 247 249 248 248 249 249 249 246 240 239 238 232 223 214 224 207 212 222 227 231 221 208 200 201
330 328 326 325 324 323 322 320 319 317 314 310 305 299 295 290 286 281 278 277 276 275 275 274 274 272 270 269 267 262 256 252 252 250 246 241 238 236 234 230 229 228 225 225 224 221 221 222 221 219 220 220 220 223 224 223 224 228 231 234 236 238 240 242 243 244 244 244 246 248 248 245 239 237 235 226 223 238 220 196 206 222 223 211 200 194 192 200
327 325 322 321 319 319 318 317 316 315 315 315 313 310 303 297 291 285 280 276 274 274 273 273 274 272 269 267 266 263 255 247 247 250 246 240 235 232 231 227 225 225 221 221 221 219 218 218 219 219 219 219 220 223 224 223 224 227 229 230 232 235 236 237 239 241 241 242 243 244 244 242 240 240 235 225 224 230 213 204 213 220 221 215 204 192 181 189
324 321 319 317 315 314 313 312 312 312 313 313 313 314 311 306 299 292 286 279 274 272 272 272 273 273 270 267 265 262 258 251 241 243 240 236 231 227 226 223 222 222 219 218 217 217 217 217 217 217 217 218 220 222 222 223 224 226 227 228 230 232 232 232 234 237 239 241 239 238 238 238 240 243 239 225 222 226 214 212 213 213 219 220 217 211 205 211
322 319 317 315 313 311 310 309 309 310 311 311 311 311 311 308 305 300 293 285 278 272 272 273 274 275 272 269 266 261 260 250 233 234 234 231 228 224 221 219 219 219 218 217 215 215 215 215 215 216 217 218 220 222 221 222 224 227 227 227 228 229 229 229 231 233 236 238 238 237 237 238 239 244 243 227 222 225 215 213 213 210 214 215 216 217 218 224
323 321 319 318 315 313 311 309 309 309 309 308 309 308 307 305 302 299 294 290 284 276 273 274 276 276 273 271 267 261 258 246 233 229 229 226 223 221 219 217 216 216 216 216 215 214 213 214 212 213 216 217 219 220 221 223 225 227 228 229 229 228 228 228 229 231 233 235 235 238 239 241 242 243 243 231 224 226 223 221 216 214 213 207 208 211 215 225
325 325 323 321 318 315 312 310 308 307 307 306 306 306 306 303 299 294 291 287 283 280 276 276 277 275 275 272 266 262 254 245 236 226 225 223 220 219 219 217 215 214 214 214 215 214 212 211 210 211 212 215 218 219 221 224 225 225 226 229 229 228 228 228 229 230 232 234 234 238 241 242 241 240 239 234 229 229 232 230 221 225 230 215 203 203 214 231
329 328 326 323 320 316 312 309 306 304 303 303 304 305 305 303 300 295 289 284 280 278 276 277 277 275 276 270 264 266 255 245 239 227 223 221 218 217 218 218 215 213 212 213 213 213 211 210 210 210 210 213 216 217 222 225 225 224 224 227 229 229 229 227 227 229 232 235 234 238 244 242 236 234 234 234 232 231 235 234 227 233 241 235 222 215 227 246
331 330 327 324 320 316 312 308 306 304 302 302 302 303 304 304 301 296 289 284 281 278 276 276 277 277 275 269 266 268 254 245 240 228 221 220 217 214 216 217 214 212 211 211 212 212 210 210 211 211 210 212 212 213 220 224 224 224 223 225 227 230 230 226 225 228 231 233 233 236 244 241 231 225 225 227 228 227 232 235 234 238 244 247 243 241 251 258
332 329 327 324 321 317 313 310 308 306 306 306 304 303 303 303 301 297 291 285 282 279 278 276 275 277 275 271 272 267 255 247 243 233 222 220 216 212 214 215 213 211 209 209 210 210 210 211 211 210 210 211 211 210 215 222 223 222 223 225 225 229 231 226 223 227 228 229 230 232 241 239 224 214 219 223 223 222 229 236 238 240 248 253 252 253 258 262
330 328 325 324 321 317 313 312 310 308 309 309 306 304 303 302 300 299 295 290 286 282 280 277 274 276 275 274 275 266 255 244 242 237 227 223 216 210 212 212 211 209 207 207 207 208 210 211 210 208 210 211 210 210 211 213 219 219 219 222 223 226 230 227 224 226 226 225 226 226 237 238 221 206 217 226 225 222 227 236 238 241 250 254 253 255 258 263
330 328 326 323 321 318 314 314 311 309 310 308 306 304 304 303 302 301 297 293 288 284 281 279 277 275 274 277 276 263 252 240 241 241 232 226 218 211 210 211 210 209 207 205 206 208 208 210 209 207 209 210 210 210 208 208 211 214 215 218 221 223 226 229 228 227 226 224 225 223 228 234 224 210 216 223 223 223 228 233 236 239 246 247 248 251 256 261
331 331 329 326 324 321 317 315 312 309 310 309 307 307 307 305 304 301 297 293 289 286 283 280 279 275 271 272 269 261 255 243 241 242 234 228 220 212 210 209 208 208 207 205 207 208 208 209 207 207 207 208 210 207 204 207 206 204 209 212 219 223 223 226 227 227 225 223 224 223 222 226 225 219 221 222 217 219 223 225 230 236 238 239 242 249 253 253
333 333 331 328 327 326 322 317 312 310 310 311 310 310 309 307 305 302 300 297 293 291 287 283 279 275 270 266 262 260 257 247 241 240 234 226 221 214 210 208 207 207 206 205 207 208 208 209 207 207 207 207 209 206 202 208 206 198 201 205 210 220 223 225 225 224 224 221 220 221 221 221 221 223 226 225 218 216 216 218 227 237 239 242 244 249 250 241
333 335 335 331 329 328 326 319 314 311 310 312 312 312 312 309 306 305 305 301 298 296 292 288 282 276 272 264 258 256 251 247 245 239 233 225 217 214 210 206 207 207 204 204 205 207 207 206 206 207 208 207 208 207 203 207 209 202 202 205 207 214 221 224 223 221 222 221 219 219 220 220 220 223 224 222 220 220 220 223 231 239 242 246 246 243 240 228
333 335 337 335 331 327 324 318 313 310 311 312 312 315 315 310 305 305 303 298 297 297 293 292 287 280 274 263 253 253 248 243 246 237 227 223 214 211 207 204 206 207 206 203 202 205 206 206 208 209 209 208 208 208 204 202 208 205 205 207 207 212 219 224 223 217 211 218 221 221 222 223 223 224 225 221 220 222 223 225 230 235 238 244 247 237 231 223
334 334 336 338 334 326 319 314 311 309 312 313 315 319 317 313 311 310 307 301 301 304 300 295 287 282 280 271 256 254 249 237 234 226 213 217 214 209 204 202 205 207 206 203 199 202 205 209 212 211 211 210 210 209 205 201 200 202 204 206 207 210 214 221 222 216 213 219 224 224 225 228 226 225 228 227 227 228 226 228 230 233 238 248 249 235 227 227
335 333 334 337 335 328 318 312 311 310 313 314 317 320 317 314 314 314 313 308 313 323 311 290 277 279 282 276 260 254 249 237 227 216 206 215 213 209 204 201 204 207 205 200 197 200 206 211 213 211 211 211 211 211 206 201 196 192 195 199 203 208 211 212 213 212 215 220 222 222 224 228 228 226 228 229 231 234 235 236 238 240 247 252 247 234 229 231
336 334 333 333 333 329 320 313 312 312 313 315 320 321 317 317 315 316 315 310 319 332 312 283 274 279 279 270 258 247 243 237 228 215 209 219 214 209 206 202 204 207 205 202 199 200 206 214 213 209 210 210 210 211 207 203 198 186 184 190 193 202 209 209 204 204 210 216 219 222 224 226 226 225 226 228 230 234 235 235 237 242 246 244 235 232 233 232
335 334 333 333 331 327 322 315 313 313 313 315 320 321 319 320 318 318 316 310 318 330 312 298 291 285 278 266 257 246 241 236 228 214 209 220 218 212 210 204 205 208 207 205 202 203 207 215 213 208 208 210 209 210 207 205 203 195 185 185 186 194 204 205 200 201 208 215 220 224 232 232 228 225 225 227 230 231 232 233 234 237 236 229 224 226 228 224
334 333 331 332 329 325 323 318 313 314 314 315 320 321 320 321 320 319 318 314 317 325 310 314 311 292 277 266 261 255 246 236 225 211 207 215 218 216 214 207 206 208 208 206 205 207 207 211 214 209 207 208 209 209 208 206 206 204 197 188 184 189 195 196 194 200 211 220 223 223 233 241 231 228 227 228 231 231 233 235 233 230 227 224 221 221 220 218
332 332 330 330 327 322 320 318 314 313 314 315 318 320 319 321 320 320 323 317 314 325 325 321 318 293 272 287 282 264 248 238 226 213 207 211 216 216 213 209 207 208 210 207 207 212 208 202 212 210 207 208 208 209 210 208 206 208 204 193 186 189 190 191 192 195 207 214 221 222 224 240 237 232 230 231 234 235 235 235 232 228 225 222 219 217 215 215
331 334 332 329 325 318 315 316 313 311 313 315 318 319 318 319 319 322 331 321 300 326 333 327 313 263 271 301 290 266 249 245 229 215 208 209 214 214 210 210 208 207 208 205 207 217 210 198 202 208 207 207 207 207 210 208 207 209 206 196 193 196 192 192 196 193 201 211 217 217 217 236 248 240 237 237 237 237 235 232 229 225 222 220 218 216 214 215
330 332 330 329 325 314 310 310 308 308 311 315 319 320 319 318 319 324 336 326 290 325 338 342 329 267 275 278 272 253 222 228 223 208 204 204 208 212 209 208 209 206 207 204 202 214 212 200 194 200 204 207 208 207 208 208 206 210 208 201 202 207 204 205 209 205 209 228 230 213 206 225 254 244 239 240 239 237 234 228 223 221 219 219 219 218 218 220
329 329 327 327 324 313 306 303 301 305 309 314 318 319 320 318 316 323 327 242 309 325 332 346 342 319 302 272 242 194 181 175 99 172 190 199 202 207 208 205 207 205 206 208 202 206 218 205 197 198 203 206 208 208 208 206 205 210 209 204 207 214 219 224 233 229 226 246 243 224 211 216 258 248 238 238 237 231 228 223 220 221 221 220 219 220 223 226
330 327 325 326 324 317 308 298 294 300 305 310 315 317 320 316 314 324 274 273 316 323 327 336 333 329 327 310 276 185 178 184 147 158 181 194 194 200 202 198 203 202 203 209 204 195 206 202 200 205 207 207 208 208 207 207 206 209 207 204 205 208 215 219 223 228 232 252 242 233 230 226 254 257 241 235 234 228 222 219 218 221 222 219 217 218 224 229
330 328 328 327 326 323 314 301 291 294 300 304 308 314 319 317 311 284 186 307 317 319 329 332 328 330 330 312 298 219 181 186 184 167 178 184 185 192 189 184 191 191 193 202 201 194 174 183 199 207 207 203 206 206 205 206 206 207 204 198 197 192 188 201 204 208 218 248 239 237 237 227 232 251 245 237 236 229 222 219 218 219 217 214 213 216 222 230
332 333 332 328 329 329 318 306 294 290 296 300 304 310 316 319 292 235 267 312 315 317 327 328 327 334 330 299 273 245 194 184 183 175 178 179 182 189 184 180 182 178 185 193 192 192 181 177 194 205 206 198 199 199 196 200 202 203 200 191 182 166 172 195 211 206 214 232 232 234 228 225 241 250 250 247 235 226 222 220 217 215 211 210 213 218 224 231
335 338 336 331 334 335 323 313 300 291 296 297 302 307 306 311 268 262 292 306 307 314 321 326 326 329 324 292 249 227 200 182 180 177 181 181 183 188 186 184 182 181 191 186 182 186 186 186 191 196 203 201 198 195 189 192 196 195 196 191 179 141 162 195 226 215 217 230 233 237 231 232 250 254 253 246 230 222 222 218 214 215 215 217 221 226 232 236
337 340 340 337 339 340 333 323 306 295 296 293 296 300 286 268 287 297 302 304 315 320 322 329 329 325 315 275 227 207 190 180 182 177 180 186 186 187 189 186 184 187 190 178 178 183 184 197 195 189 197 201 200 201 197 195 192 192 197 196 192 180 153 180 197 171 177 226 232 224 219 214 222 244 251 241 230 226 220 213 212 217 220 224 229 234 240 242
339 342 344 342 341 343 346 335 313 299 295 293 292 288 271 268 291 304 312 316 325 326 328 336 336 328 314 254 200 195 187 178 183 178 174 189 191 190 191 189 185 182 176 174 180 185 186 200 195 186 193 201 200 202 203 200 192 191 196 199 200 195 162 150 171 173 184 219 231 196 195 216 219 239 246 240 237 228 216 211 214 219 221 225 232 237 242 246
342 344 346 346 345 347 352 339 318 306 302 297 289 283 280 289 298 307 322 326 327 326 330 340 340 331 325 205 177 191 186 174 182 183 173 187 194 193 192 190 185 176 170 177 179 182 187 194 187 184 187 202 203 199 201 203 194 191 195 198 201 197 182 159 160 169 174 204 229 192 203 229 229 239 235 234 239 222 210 212 214 219 225 227 232 234 234 235
347 348 350 351 352 350 348 339 324 315 308 297 288 290 295 302 309 317 324 325 324 325 327 329 327 327 339 176 177 184 179 170 180 183 173 176 192 195 193 191 185 173 164 177 182 183 187 186 182 186 181 186 201 199 202 208 202 196 196 194 190 190 200 202 176 123 133 179 232 198 201 217 220 232 229 226 228 213 207 211 212 219 223 218 218 220 219 223
352 352 353 356 357 354 351 346 336 318 300 289 288 295 300 307 317 321 323 320 319 322 320 312 304 309 312 188 187 184 178 170 176 181 173 167 187 194 194 193 183 171 159 167 176 177 184 187 185 191 185 173 184 194 200 208 210 207 201 194 188 184 195 199 186 105 143 184 264 208 203 210 215 225 228 221 219 212 209 213 217 225 224 211 207 208 212 216
354 353 355 359 358 357 357 353 340 314 287 281 288 296 304 314 320 320 320 317 314 313 311 307 298 306 309 202 193 189 179 172 177 180 173 172 183 192 196 194 178 169 160 157 165 164 175 185 182 187 185 174 178 192 198 199 200 205 204 197 197 197 191 191 192 185 157 178 219 218 220 213 213 221 225 220 218 215 214 217 223 228 226 216 210 208 212 217
355 355 356 2 0 358 359 355 342 313 291 290 298 303 310 316 318 322 321 311 308 302 299 305 298 304 318 195 188 181 171 172 181 177 171 180 184 189 196 192 178 171 163 156 163 159 162 178 181 180 183 183 188 195 199 195 188 189 195 192 191 193 188 189 200 207 201 150 175 169 256 219 207 210 214 214 217 216 217 221 224 224 219 215 213 213 216 221
357 357 358 3 4 4 2 357 348 321 306 307 310 310 313 314 315 324 322 302 301 300 298 306 286 282 315 178 183 170 163 165 175 173 174 184 183 188 195 189 180 178 174 163 167 160 152 167 173 178 185 193 198 199 200 198 190 186 190 191 190 186 177 175 193 210 214 251 205 166 221 213 206 209 210 211 216 218 221 228 231 225 215 210 212 215 218 224
358 360 0 2 5 8 4 358 354 337 324 323 322 319 319 315 311 319 322 300 297 304 307 309 265 242 237 173 166 151 155 154 160 168 172 184 181 174 189 187 183 184 182 171 169 162 148 154 168 181 189 194 198 201 202 202 196 190 189 195 196 191 184 180 174 196 207 234 248 226 250 203 203 211 214 207 212 219 221 224 227 220 209 205 207 210 215 222
0 2 3 4 6 8 5 359 357 349 340 338 333 333 334 322 315 324 326 307 302 312 320 320 256 221 198 160 147 143 151 149 151 162 156 175 174 148 170 185 188 190 185 174 171 169 167 169 161 169 183 189 192 199 203 204 200 196 194 196 197 195 190 186 185 193 201 216 222 185 312 213 199 208 217 208 205 213 213 211 214 209 201 197 200 204 210 217
3 4 5 7 7 7 7 2 358 352 348 347 343 346 350 336 326 332 337 322 306 315 335 358 203 204 159 137 148 154 156 149 152 164 166 170 168 150 164 185 193 193 181 174 176 180 182 172 139 135 156 182 188 188 193 197 201 200 197 196 196 197 193 188 195 204 205 216 213 190 246 236 202 202 214 212 208 212 209 203 199 195 193 191 194 200 206 213
3 8 10 9 7 8 9 7 2 358 356 359 2 6 9 9 2 345 343 349 323 323 4 70 111 146 113 115 147 160 161 158 155 166 179 185 173 164 171 186 195 193 182 177 181 186 188 182 151 152 160 178 183 182 186 190 196 201 201 200 197 197 197 195 198 202 203 214 212 204 228 244 225 215 215 214 220 218 201 193 185 180 186 190 193 199 206 210
2 9 12 14 12 9 9 10 10 9 5 3 9 17 21 25 28 20 5 26 53 48 65 101 117 128 119 117 143 158 165 165 161 170 180 179 171 174 180 187 192 193 189 178 158 170 196 216 219 194 189 191 192 194 194 192 192 197 202 204 203 200 201 202 203 204 206 209 212 215 227 239 236 233 228 221 224 215 187 180 180 179 185 191 192 197 204 207
4 6 10 15 16 8 7 13 17 18 15 9 12 21 24 25 27 25 18 28 74 90 93 106 122 133 133 127 139 153 156 151 157 172 175 170 175 178 181 187 191 196 192 173 147 158 196 215 223 245 216 199 198 201 204 200 195 196 200 203 205 206 206 209 212 212 210 211 219 221 224 230 227 222 226 228 227 220 199 186 184 183 184 188 190 193 198 201
9 11 11 13 14 7 7 14 18 22 25 21 21 23 19 18 24 23 16 13 87 103 110 117 125 132 131 134 146 147 141 138 145 162 172 187 191 176 176 185 192 197 192 178 168 180 208 218 210 241 220 190 193 201 207 206 200 199 199 197 201 206 209 212 216 218 217 218 223 222 220 228 227 216 221 227 225 222 215 205 195 186 185 187 188 191 194 193
10 17 16 15 15 12 10 13 17 23 29 28 27 23 13 12 27 26 19 24 122 112 119 127 133 136 130 136 136 115 117 130 143 162 175 179 168 164 176 185 191 194 192 189 191 201 222 219 208 324 290 182 181 189 197 201 199 197 198 195 194 201 208 212 217 219 221 223 228 235 239 240 242 236 232 231 225 220 216 210 200 189 186 188 187 188 188 186
8 12 12 15 19 17 14 13 15 24 31 33 33 24 10 10 25 28 30 61 114 106 109 118 124 130 106 86 67 68 91 125 155 165 151 123 133 152 171 184 188 188 190 194 199 210 225 223 227 328 307 192 180 181 185 194 194 190 192 193 192 197 204 208 213 215 217 222 228 238 250 256 256 241 233 232 226 218 215 211 203 194 188 187 186 185 184 185
8 6 4 8 14 17 17 14 14 22 30 34 34 18 5 10 17 22 40 81 94 81 88 90 81 78 66 41 13 12 56 118 153 150 113 102 125 146 161 177 184 183 184 190 198 207 224 239 262 311 297 204 182 180 181 186 186 181 182 185 189 194 199 202 208 210 211 218 224 233 243 249 253 233 226 232 229 219 216 213 204 196 191 187 184 184 188 196
6 7 4 3 7 12 16 15 15 20 26 31 33 19 4 8 11 9 24 59 71 72 81 72 58 53 33 7 346 339 354 130 156 139 107 110 133 147 159 174 181 179 177 182 188 198 223 248 263 294 289 190 178 177 177 177 177 180 184 186 187 190 191 197 205 211 212 215 221 227 231 238 253 236 220 228 231 223 220 213 202 194 190 187 183 186 198 211
Height
3071 3070 3069 3069 3068 3067 3066 3065 3064 3063 3062 3062 3061 3061 3060 3059 3059 3058 3057 3056 3056 3055 3055 3054 3054 3054 3055 3056 3057 3058 3059 3062 3064 3065 3068 3071 3070 3071 3076 3078 3080 3082 3085 3088 3091 3094 3096 3098 3101 3102 3104 3105 3106 3109 3112 3113 3116 3117 3116 3114 3113 3115 3119 3123 3127 3130 3132 3136 3139 3140 3140 3140 3142 3144 3143 3144 3144 3144 3145 3147 3148 3149 3150 3151 3152 3153 3153 3153
3069 3068 3067 3066 3065 3064 3064 3063 3062 3061 3060 3059 3059 3058 3057 3057 3056 3055 3054 3053 3052 3052 3051 3051 3051 3051 3051 3052 3053 3053 3055 3057 3059 3062 3064 3065 3065 3069 3073 3075 3077 3079 3082 3086 3088 3091 3093 3095 3097 3098 3099 3101 3103 3106 3108 3110 3111 3112 3111 3110 3109 3113 3118 3123 3126 3128 3131 3135 3137 3137 3137 3138 3140 3141 3141 3142 3142 3142 3143 3145 3147 3148 3149 3150 3151 3152 3152 3152
3067 3066 3065 3064 3063 3062 3061 3060 3059 3058 3058 3057 3056 3055 3054 3054 3053 3052 3052 3050 3049 3049 3048 3047 3047 3048 3048 3048 3049 3049 3051 3053 3055 3058 3059 3060 3063 3066 3068 3071 3074 3076 3080 3083 3085 3087 3089 3091 3093 3094 3096 3097 3099 3102 3104 3106 3107 3108 3108 3106 3107 3114 3119 3121 3123 3126 3129 3132 3133 3133 3134 3136 3138 3138 3139 3140 3141 3141 3142 3143 3145 3147 3148 3149 3149 3150 3150 3151
3065 3064 3063 3062 3061 3060 3059 3058 3056 3056 3055 3054 3053 3052 3051 3051 3050 3049 3049 3047 3046 3045 3045 3044 3044 3044 3044 3045 3045 3045 3047 3049 3051 3054 3055 3057 3059 3062 3065 3069 3071 3073 3077 3080 3081 3083 3085 3087 3089 3090 3092 3093 3096 3098 3099 3101 3103 3104 3104 3103 3108 3114 3115 3118 3121 3124 3127 3128 3129 3130 3131 3134 3136 3136 3138 3139 3139 3141 3141 3141 3143 3146 3147 3147 3148 3148 3149 3150
3063 3062 3061 3060 3059 3057 3056 3055 3054 3053 3052 3051 3050 3049 3048 3048 3047 3046 3045 3044 3043 3042 3042 3041 3041 3040 3041 3042 3042 3042 3044 3046 3047 3049 3051 3053 3055 3058 3062 3065 3067 3069 3073 3076 3077 3079 3081 3083 3085 3087 3088 3090 3093 3094 3095 3099 3101 3101 3101 3103 3108 3110 3112 3117 3120 3122 3124 3125 3126 3127 3129 3132 3134 3134 3136 3137 3138 3140 3140 3140 3142 3144 3145 3145 3145 3147 3148 3149
3062 3060 3059 3058 3057 3055 3054 3052 3051 3050 3049 3048 3047 3046 3045 3044 3044 3043 3042 3041 3040 3039 3039 3038 3037 3037 3037 3038 3038 3039 3041 3043 3044 3045 3047 3049 3051 3054 3058 3062 3063 3065 3068 3071 3072 3075 3077 3079 3081 3083 3084 3087 3089 3090 3092 3097 3098 3098 3099 3102 3105 3107 3111 3115 3117 3119 3121 3122 3123 3125 3127 3129 3130 3131 3133 3135 3137 3138 3139 3139 3140 3141 3142 3142 3144 3146 3147 3149
3060 3059 3058 3056 3055 3054 3052 3051 3049 3048 3046 3045 3044 3043 3042 3041 3041 3040 3039 3038 3037 3036 3036 3035 3034 3033 3034 3035 3034 3035 3036 3040 3043 3043 3044 3045 3047 3050 3053 3057 3059 3060 3064 3066 3068 3071 3073 3075 3077 3079 3082 3085 3086 3087 3091 3095 3095 3095 3096 3099 3102 3105 3109 3113 3114 3116 3118 3119 3121 3123 3124 3126 3127 3129 3131 3133 3136 3137 3137 3138 3138 3139 3140 3141 3143 3145 3147 3149
3059 3057 3056 3055 3053 3052 3051 3049 3048 3046 3045 3043 3042 3041 3040 3039 3038 3037 3036 3035 3034 3033 3033 3032 3031 3030 3030 3031 3031 3030 3032 3039 3042 3038 3039 3041 3043 3046 3048 3052 3054 3056 3059 3061 3064 3068 3070 3072 3074 3077 3079 3082 3084 3086 3090 3093 3092 3091 3093 3097 3100 3103 3107 3110 3112 3113 3115 3116 3119 3120 3121 3122 3125 3126 3128 3131 3134 3135 3136 3137 3137 3138 3139 3140 3142 3144 3146 3148
3057 3056 3054 3053 3051 3050 3049 3047 3046 3045 3043 3042 3041 3039 3038 3037 3036 3035 3034 3033 3032 3031 3030 3029 3028 3027 3027 3027 3027 3027 3031 3037 3036 3033 3036 3038 3039 3042 3044 3047 3049 3052 3056 3058 3060 3063 3066 3069 3072 3075 3077 3081 3083 3084 3088 3089 3087 3088 3091 3095 3098 3101 3105 3107 3108 3110 3112 3114 3116 3117 3118 3121 3123 3124 3125 3128 3131 3132 3134 3135 3136 3137 3138 3140 3142 3143 3145 3146
3055 3054 3052 3051 3049 3048 3047 3045 3044 3043 3042 3040 3039 3038 3037 3035 3034 3033 3032 3031 3029 3028 3028 3026 3026 3024 3023 3024 3023 3025 3030 3032 3030 3031 3033 3034 3036 3038 3040 3042 3045 3048 3052 3055 3057 3059 3063 3067 3071 3073 3075 3078 3079 3081 3084 3084 3085 3087 3091 3094 3096 3099 3102 3104 3105 3107 3109 3111 3113 3114 3116 3119 3121 3122 3123 3126 3128 3130 3132 3133 3135 3136 3138 3139 3140 3142 3143 3144
3053 3052 3050 3048 3047 3045 3044 3043 3042 3041 3039 3038 3037 3036 3034 3033 3032 3030 3029 3028 3027 3026 3025 3024 3023 3021 3021 3020 3019 3023 3028 3028 3027 3029 3030 3031 3033 3035 3037 3039 3041 3045 3049 3052 3055 3057 3061 3066 3068 3069 3071 3074 3075 3079 3081 3081 3083 3086 3089 3092 3094 3097 3099 3100 3102 3105 3107 3109 3111 3113 3115 3117 3118 3119 3121 3124 3126 3128 3130 3131 3133 3135 3137 3138 3139 3140 3141 3142
3051 3050 3048 3046 3045 3043 3042 3040 3039 3038 3037 3036 3035 3033 3032 3030 3029 3028 3026 3025 3025 3024 3023 3022 3020 3019 3018 3015 3017 3023 3025 3023 3025 3026 3027 3028 3030 3032 3034 3036 3039 3043 3046 3050 3053 3056 3060 3063 3065 3066 3068 3070 3073 3077 3078 3079 3082 3084 3087 3089 3091 3094 3095 3097 3100 3102 3105 3107 3110 3113 3113 3114 3116 3117 3120 3122 3123 3125 3127 3129 3131 3132 3134 3136 3137 3139 3140 3140
3049 3047 3046 3044 3043 3041 3039 3037 3036 3035 3034 3033 3032 3031 3029 3027 3026 3025 3024 3022 3022 3021 3020 3019 3017 3016 3014 3011 3016 3022 3020 3020 3023 3023 3024 3024 3026 3029 3031 3034 3037 3040 3043 3047 3051 3054 3057 3059 3061 3063 3066 3068 3071 3074 3074 3076 3079 3082 3085 3087 3089 3091 3090 3094 3098 3100 3103 3105 3108 3112 3110 3110 3114 3117 3118 3119 3121 3123 3124 3126 3128 3130 3132 3133 3135 3137 3137 3138
3047 3045 3044 3042 3040 3039 3037 3035 3034 3032 3031 3031 3030 3028 3026 3025 3023 3022 3021 3020 3019 3018 3017 3016 3015 3014 3010 3009 3016 3018 3017 3019 3019 3019 3019 3020 3024 3027 3029 3032 3034 3037 3040 3044 3048 3051 3054 3056 3058 3061 3064 3065 3068 3070 3072 3074 3077 3080 3084 3085 3086 3087 3087 3091 3096 3097 3101 3103 3107 3110 3108 3107 3113 3116 3116 3117 3119 3121 3122 3124 3126 3128 3130 3131 3133 3135 3135 3136
3045 3043 3042 3040 3038 3036 3035 3033 3031 3030 3029 3028 3027 3025 3024 3022 3021 3020 3018 3017 3016 3015 3014 3013 3012 3011 3007 3008 3013 3014 3014 3016 3015 3016 3017 3018 3022 3025 3027 3029 3031 3034 3038 3042 3045 3048 3051 3052 3054 3058 3060 3063 3067 3068 3070 3073 3074 3077 3080 3080 3082 3084 3086 3090 3094 3095 3099 3102 3105 3107 3106 3106 3111 3113 3113 3115 3117 3119 3121 3122 3124 3126 3128 3129 3131 3132 3133 3134
3044 3042 3039 3037 3036 3034 3033 3031 3029 3027 3026 3026 3025 3023 3021 3020 3018 3017 3015 3015 3013 3012 3011 3010 3009 3008 3006 3007 3010 3010 3011 3012 3012 3013 3015 3016 3019 3022 3024 3026 3029 3033 3036 3040 3042 3044 3047 3048 3051 3055 3058 3061 3063 3064 3068 3071 3072 3073 3074 3076 3078 3081 3085 3089 3091 3094 3097 3101 3102 3104 3105 3105 3109 3111 3111 3112 3115 3117 3119 3120 3122 3124 3126 3127 3129 3130 3131 3132
3042 3040 3037 3035 3034 3032 3030 3029 3027 3025 3024 3023 3022 3021 3019 3017 3015 3014 3012 3011 3010 3009 3008 3007 3006 3005 3004 3006 3007 3007 3008 3009 3010 3011 3013 3014 3016 3019 3021 3024 3028 3031 3034 3038 3039 3041 3043 3045 3048 3052 3055 3058 3059 3062 3065 3065 3065 3068 3070 3074 3078 3080 3085 3087 3090 3093 3096 3098 3100 3102 3103 3104 3107 3109 3109 3111 3113 3115 3117 3118 3120 3122 3123 3125 3127 3128 3129 3130
3041 3038 3036 3033 3032 3030 3028 3026 3025 3023 3022 3021 3020 3018 3016 3014 3012 3010 3009 3008 3007 3006 3004 3003 3003 3001 3001 3004 3004 3005 3006 3006 3007 3009 3010 3011 3013 3016 3019 3023 3026 3029 3032 3035 3036 3038 3040 3043 3047 3049 3051 3053 3054 3056 3057 3057 3060 3065 3068 3073 3077 3080 3083 3086 3089 3092 3094 3096 3098 3100 3101 3103 3106 3107 3108 3110 3111 3113 3115 3117 3118 3120 3121 3123 3125 3126 3127 3127
3039 3037 3034 3032 3030 3028 3026 3024 3023 3021 3020 3019 3018 3016 3014 3011 3009 3008 3006 3005 3004 3003 3001 3000 3000 2998 2998 3001 3002 3001 3002 3003 3004 3005 3007 3009 3010 3012 3016 3021 3023 3026 3029 3031 3033 3035 3037 3040 3043 3043 3043 3044 3046 3050 3054 3057 3062 3066 3069 3073 3076 3079 3082 3084 3088 3091 3093 3094 3096 3097 3099 3101 3104 3105 3106 3108 3109 3111 3113 3115 3116 3118 3119 3121 3122 3123 3124 3125
3038 3035 3032 3030 3028 3026 3025 3023 3021 3020 3019 3017 3016 3014 3012 3009 3007 3005 3004 3003 3002 3001 2999 2997 2996 2995 2995 2997 2999 2997 2998 3000 3000 3002 3004 3006 3007 3009 3013 3017 3020 3023 3025 3027 3030 3032 3035 3036 3035 3034 3037 3041 3045 3050 3056 3060 3064 3067 3070 3073 3076 3079 3081 3083 3087 3091 3093 3093 3094 3096 3098 3100 3102 3104 3105 3106 3107 3109 3110 3112 3114 3115 3117 3119 3120 3121 3122 3124
3036 3034 3031 3029 3027 3025 3023 3021 3019 3018 3017 3016 3014 3012 3009 3007 3004 3002 3000 2998 2999 2998 2997 2995 2993 2991 2992 2994 2995 2993 2993 2995 2997 3000 3002 3002 3004 3006 3009 3013 3016 3019 3021 3025 3029 3031 3033 3030 3029 3033 3039 3044 3047 3051 3056 3061 3064 3067 3070 3073 3075 3078 3081 3083 3086 3090 3091 3092 3093 3095 3097 3098 3100 3102 3103 3104 3105 3106 3108 3110 3112 3114 3115 3117 3118 3119 3120 3121
3035 3032 3030 3027 3025 3023 3021 3020 3018 3016 3015 3014 3012 3010 3008 3005 3003 3001 2997 2993 2993 2995 2993 2991 2989 2988 2989 2991 2991 2990 2989 2991 2994 2998 3000 3000 3001 3004 3007 3010 3013 3015 3019 3023 3026 3027 3027 3025 3027 3034 3039 3044 3048 3051 3056 3061 3064 3066 3069 3072 3074 3077 3080 3083 3085 3088 3090 3091 3092 3094 3095 3097 3098 3099 3100 3102 3103 3104 3107 3109 3111 3112 3113 3114 3115 3116 3118 3119
3033 3031 3028 3026 3024 3022 3020 3018 3016 3015 3014 3012 3011 3009 3007 3005 3002 3000 2997 2992 2990 2990 2989 2987 2986 2985 2986 2987 2986 2985 2985 2986 2991 2996 2998 2998 2999 3001 3004 3007 3010 3014 3017 3019 3021 3022 3022 3023 3028 3034 3039 3043 3046 3050 3054 3060 3063 3065 3067 3070 3073 3075 3079 3082 3085 3087 3088 3090 3091 3092 3094 3095 3096 3097 3098 3099 3101 3103 3105 3106 3108 3109 3110 3111 3113 3114 3115 3116
3032 3029 3027 3024 3022 3020 3018 3016 3014 3013 3012 3010 3009 3007 3005 3004 3001 2999 2996 2992 2988 2988 2987 2985 2984 2983 2983 2983 2982 2981 2981 2983 2987 2993 2995 2995 2998 3000 3001 3004 3008 3011 3014 3016 3019 3020 3021 3024 3028 3034 3038 3041 3045 3048 3052 3057 3060 3063 3066 3069 3072 3075 3078 3081 3084 3086 3087 3088 3089 3091 3092 3092 3093 3094 3095 3097 3098 3100 3101 3103 3105 3106 3107 3109 3109 3111 3112 3113
3030 3028 3025 3023 3020 3018 3017 3015 3012 3011 3010 3008 3007 3006 3004 3002 3000 2998 2995 2991 2987 2985 2985 2984 2982 2981 2980 2980 2979 2979 2979 2979 2984 2989 2991 2993 2996 2997 2999 3003 3005 3008 3011 3015 3018 3020 3022 3025 3028 3033 3037 3040 3043 3046 3049 3054 3058 3062 3065 3068 3072 3075 3078 3081 3083 3084 3086 3087 3088 3089 3090 3089 3089 3091 3092 3094 3095 3097 3099 3100 3102 3103 3105 3106 3107 3108 3110 3111
3028 3026 3023 3021 3019 3016 3015 3013 3011 3009 3007 3006 3005 3004 3003 3001 2999 2997 2995 2991 2986 2984 2984 2983 2981 2979 2979 2979 2978 2977 2977 2976 2981 2986 2988 2991 2994 2995 2998 3000 3002 3006 3010 3015 3018 3018 3021 3026 3028 3031 3035 3039 3042 3045 3048 3053 3057 3060 3063 3068 3073 3075 3077 3080 3082 3083 3084 3085 3086 3087 3087 3086 3086 3088 3090 3091 3093 3094 3096 3097 3099 3100 3102 3103 3105 3106 3108 3109
3026 3024 3022 3019 3017 3014 3012 3011 3009 3007 3006 3005 3004 3002 3001 3000 2998 2996 2994 2991 2987 2984 2983 2981 2980 2979 2978 2978 2976 2977 2977 2976 2978 2983 2986 2989 2992 2994 2996 2998 3000 3004 3008 3014 3017 3016 3019 3025 3027 3030 3034 3037 3039 3043 3047 3051 3056 3059 3063 3069 3072 3074 3076 3078 3080 3082 3083 3084 3084 3085 3086 3086 3084 3084 3087 3088 3090 3091 3092 3094 3096 3097 3099 3101 3102 3104 3105 3107
3025 3022 3020 3018 3015 3012 3009 3008 3007 3006 3004 3003 3002 3001 3000 2998 2997 2995 2995 2993 2987 2983 2982 2981 2979 2978 2977 2977 2976 2976 2977 2977 2978 2980 2984 2988 2990 2992 2995 2997 2999 3003 3006 3010 3013 3014 3018 3023 3026 3028 3032 3035 3037 3042 3046 3051 3055 3059 3064 3069 3072 3074 3076 3078 3080 3081 3082 3083 3082 3082 3084 3084 3082 3081 3084 3085 3086 3087 3088 3090 3093 3094 3096 3098 3099 3101 3103 3104
3023 3020 3018 3015 3013 3011 3008 3006 3005 3004 3003 3002 3001 3000 2998 2997 2996 2995 2996 2993 2985 2982 2982 2980 2979 2978 2977 2976 2976 2975 2976 2977 2978 2979 2982 2986 2988 2991 2994 2996 3000 3003 3007 3009 3012 3016 3018 3022 3027 3029 3031 3033 3037 3043 3047 3051 3055 3059 3065 3069 3072 3074 3076 3078 3079 3080 3082 3081 3079 3080 3083 3083 3080 3078 3080 3082 3082 3083 3085 3088 3090 3091 3093 3095 3097 3099 3100 3102
3022 3018 3015 3012 3010 3008 3006 3004 3003 3002 3001 3000 2999 2998 2997 2996 2995 2995 2996 2991 2983 2982 2981 2980 2979 2978 2977 2976 2975 2974 2974 2976 2978 2978 2980 2984 2987 2990 2993 2997 3000 3003 3007 3009 3013 3018 3019 3023 3028 3029 3030 3033 3038 3044 3048 3051 3056 3060 3064 3068 3071 3074 3075 3077 3078 3079 3081 3078 3076 3078 3081 3082 3079 3074 3076 3078 3079 3080 3084 3086 3087 3088 3091 3092 3094 3096 3097 3099
3020 3017 3013 3010 3007 3005 3003 3002 3002 3000 3000 2999 2998 2997 2996 2995 2994 2995 2993 2987 2982 2982 2980 2979 2978 2976 2976 2975 2975 2974 2974 2976 2978 2978 2979 2983 2986 2989 2992 2995 2998 3003 3007 3008 3012 3017 3019 3022 3025 3027 3030 3034 3039 3043 3047 3051 3055 3058 3062 3066 3069 3072 3074 3076 3077 3077 3077 3075 3074 3077 3079 3081 3078 3072 3073 3076 3077 3080 3082 3083 3085 3086 3088 3090 3091 3093 3094 3096
3018 3015 3012 3008 3005 3003 3001 3000 3000 2999 2999 2998 2997 2996 2995 2994 2993 2991 2988 2984 2982 2981 2979 2978 2976 2975 2975 2974 2974 2974 2974 2976 2977 2978 2979 2982 2985 2987 2990 2992 2994 2999 3002 3004 3009 3015 3018 3019 3022 3026 3030 3034 3037 3041 3046 3050 3052 3055 3058 3062 3065 3070 3072 3074 3074 3074 3073 3073 3074 3076 3077 3078 3075 3071 3072 3074 3075 3077 3079 3081 3083 3085 3086 3088 3089 3090 3092 3094
3016 3014 3011 3006 3004 3001 2999 2998 2998 2998 2997 2996 2996 2995 2994 2994 2992 2987 2985 2984 2983 2981 2979 2977 2975 2973 2973 2972 2973 2974 2974 2975 2977 2979 2980 2982 2985 2987 2990 2992 2994 2996 2998 3001 3007 3012 3016 3019 3021 3024 3027 3031 3033 3035 3039 3042 3046 3050 3053 3055 3059 3063 3067 3071 3072 3072 3072 3072 3073 3075 3076 3075 3072 3071 3071 3072 3073 3075 3076 3078 3080 3082 3084 3085 3086 3088 3090 3092
3015 3012 3009 3005 3002 3000 2998 2997 2997 2996 2996 2995 2994 2993 2993 2993 2989 2985 2984 2984 2982 2980 2978 2976 2973 2972 2970 2970 2971 2972 2973 2975 2977 2979 2980 2982 2984 2987 2990 2992 2994 2996 2998 3002 3006 3009 3013 3016 3017 3019 3023 3027 3030 3033 3035 3039 3044 3048 3052 3055 3057 3058 3061 3066 3069 3069 3070 3071 3071 3073 3074 3071 3070 3070 3069 3070 3071 3072 3074 3076 3077 3079 3080 3082 3084 3086 3088 3090
3014 3010 3007 3004 3001 2999 2997 2996 2996 2995 2995 2994 2993 2993 2992 2990 2986 2985 2984 2982 2980 2978 2976 2974 2972 2970 2969 2968 2970 2972 2972 2974 2977 2979 2980 2982 2983 2985 2988 2991 2993 2996 2998 3001 3006 3009 3012 3013 3014 3018 3022 3025 3029 3033 3037 3040 3045 3049 3052 3054 3055 3057 3059 3062 3065 3066 3068 3070 3069 3070 3070 3068 3068 3069 3068 3068 3069 3070 3072 3074 3075 3076 3078 3080 3081 3083 3085 3088
3013 3009 3006 3003 3000 2998 2996 2996 2995 2995 2994 2993 2992 2991 2989 2987 2985 2984 2982 2981 2980 2977 2974 2973 2971 2970 2969 2968 2970 2972 2973 2974 2976 2978 2980 2982 2984 2986 2988 2991 2994 2996 2998 3000 3004 3007 3011 3014 3015 3019 3022 3025 3029 3033 3036 3039 3042 3046 3049 3050 3053 3057 3060 3061 3063 3064 3067 3068 3066 3066 3067 3066 3067 3067 3065 3066 3067 3069 3071 3072 3074 3075 3076 3078 3079 3081 3083 3085
3012 3008 3005 3002 2999 2997 2996 2995 2995 2994 2993 2992 2991 2989 2987 2985 2984 2983 2982 2980 2979 2977 2975 2972 2971 2970 2970 2969 2970 2972 2973 2974 2975 2978 2980 2982 2983 2986 2989 2991 2994 2996 2999 3001 3004 3006 3010 3013 3015 3017 3021 3025 3029 3033 3037 3039 3041 3043 3045 3049 3053 3058 3060 3060 3061 3064 3066 3067 3064 3063 3065 3065 3066 3065 3063 3063 3065 3067 3069 3070 3072 3073 3074 3076 3077 3079 3081 3083
3011 3007 3004 3001 2999 2997 2996 2995 2994 2993 2992 2991 2989 2987 2985 2984 2983 2982 2980 2979 2978 2976 2975 2973 2972 2970 2970 2970 2970 2971 2973 2974 2975 2977 2980 2982 2983 2985 2988 2991 2994 2997 2999 3001 3004 3007 3010 3013 3016 3018 3021 3025 3028 3033 3035 3037 3040 3042 3045 3049 3052 3054 3055 3057 3060 3062 3064 3066 3064 3062 3063 3063 3063 3063 3062 3062 3064 3066 3067 3069 3070 3071 3073 3074 3076 3078 3080 3082
3010 3007 3004 3001 2999 2997 2996 2995 2994 2993 2991 2989 2987 2985 2983 2981 2981 2980 2979 2978 2977 2975 2973 2972 2971 2970 2970 2970 2970 2971 2973 2975 2975 2977 2980 2982 2984 2985 2988 2991 2994 2997 2998 3001 3004 3007 3009 3013 3015 3017 3021 3024 3026 3028 3029 3031 3036 3041 3045 3047 3049 3051 3052 3055 3057 3058 3060 3064 3063 3062 3061 3060 3060 3061 3062 3062 3063 3065 3066 3067 3069 3070 3072 3073 3075 3077 3079 3080
3011 3007 3004 3002 3000 2997 2995 2994 2992 2991 2990 2988 2985 2984 2981 2979 2978 2978 2978 2976 2975 2974 2972 2971 2971 2970 2970 2969 2969 2971 2973 2975 2976 2978 2980 2982 2984 2985 2987 2991 2993 2996 2998 3001 3004 3006 3009 3011 3013 3016 3020 3022 3021 3020 3022 3026 3031 3036 3039 3041 3045 3048 3050 3053 3057 3057 3058 3060 3062 3062 3060 3058 3058 3060 3061 3061 3062 3063 3065 3066 3068 3069 3071 3073 3074 3076 3078 3079
3011 3008 3005 3002 3000 2997 2995 2993 2991 2990 2988 2986 2984 2982 2980 2978 2976 2976 2976 2975 2973 2972 2971 2970 2970 2970 2969 2969 2969 2970 2973 2976 2977 2978 2980 2982 2983 2985 2987 2990 2993 2995 2998 3000 3002 3005 3007 3009 3011 3013 3015 3016 3017 3019 3023 3028 3031 3034 3037 3039 3043 3046 3048 3052 3055 3055 3056 3058 3059 3060 3058 3056 3057 3059 3059 3060 3061 3062 3063 3065 3066 3067 3069 3071 3073 3075 3077 3079
3011 3008 3005 3003 3000 2997 2995 2993 2991 2990 2987 2985 2983 2981 2979 2977 2975 2974 2974 2973 2972 2971 2970 2970 2969 2969 2969 2969 2970 2971 2973 2976 2977 2978 2980 2982 2983 2985 2986 2990 2993 2995 2998 3000 3002 3005 3006 3008 3010 3011 3012 3015 3020 3023 3026 3030 3034 3037 3039 3040 3043 3046 3047 3049 3051 3054 3056 3057 3057 3058 3056 3054 3055 3057 3058 3059 3060 3060 3062 3063 3064 3066 3068 3070 3072 3074 3076 3078
3011 3008 3005 3003 3001 2998 2995 2993 2991 2989 2987 2984 2982 2980 2978 2976 2974 2974 2973 2972 2971 2970 2970 2969 2969 2969 2969 2970 2971 2972 2974 2976 2977 2979 2981 2982 2984 2985 2987 2990 2993 2996 2998 3000 3002 3004 3006 3007 3009 3011 3014 3019 3023 3025 3027 3031 3034 3036 3038 3039 3041 3043 3046 3048 3051 3053 3055 3056 3056 3057 3056 3053 3054 3055 3057 3058 3059 3060 3061 3062 3063 3064 3066 3069 3071 3073 3075 3077
3012 3009 3006 3003 3001 2999 2996 2993 2991 2989 2986 2984 2982 2980 2978 2976 2974 2973 2972 2971 2971 2970 2969 2968 2968 2969 2970 2970 2971 2973 2974 2976 2977 2979 2981 2982 2984 2986 2988 2990 2993 2995 2997 2999 3002 3004 3005 3007 3009 3011 3016 3021 3023 3024 3026 3028 3030 3031 3033 3036 3038 3042 3045 3048 3050 3052 3053 3054 3055 3056 3055 3053 3053 3055 3056 3057 3058 3059 3060 3062 3063 3064 3066 3069 3071 3073 3074 3075
3013 3010 3007 3004 3002 2999 2997 2994 2991 2989 2986 2983 2981 2979 2977 2975 2974 2973 2972 2971 2970 2970 2969 2969 2969 2970 2970 2970 2972 2973 2974 2976 2977 2979 2981 2982 2984 2987 2988 2990 2992 2994 2997 3000 3003 3005 3006 3008 3009 3010 3012 3015 3016 3017 3017 3019 3023 3027 3030 3033 3037 3040 3043 3046 3048 3049 3050 3052 3053 3054 3054 3053 3053 3054 3055 3056 3058 3059 3060 3061 3063 3064 3066 3068 3070 3072 3073 3074
3013 3010 3008 3005 3002 3000 2997 2995 2992 2989 2986 2984 2981 2979 2977 2976 2975 2973 2973 2972 2971 2971 2971 2971 2970 2970 2971 2972 2973 2974 2975 2976 2977 2979 2980 2982 2984 2987 2989 2991 2992 2994 2997 3001 3003 3005 3006 3007 3008 3009 3010 3011 3012 3013 3014 3017 3021 3024 3028 3032 3036 3039 3042 3045 3046 3047 3049 3051 3052 3052 3053 3053 3053 3054 3055 3056 3057 3058 3060 3061 3063 3065 3066 3068 3070 3071 3072 3074
3013 3010 3007 3004 3002 3000 2998 2996 2993 2990 2987 2985 2982 2980 2979 2977 2976 2975 2974 2973 2972 2972 2972 2972 2972 2971 2972 2973 2974 2975 2976 2976 2977 2979 2980 2982 2984 2985 2988 2990 2992 2994 2998 3001 3003 3005 3006 3007 3007 3009 3010 3011 3013 3016 3017 3019 3022 3024 3027 3031 3035 3038 3041 3043 3044 3046 3048 3050 3050 3050 3051 3052 3052 3053 3054 3056 3057 3059 3060 3062 3063 3065 3066 3068 3069 3070 3072 3073
3015 3012 3008 3005 3003 3001 2999 2996 2993 2991 2988 2986 2984 2982 2980 2978 2977 2976 2975 2974 2973 2973 2973 2973 2973 2973 2973 2973 2974 2976 2976 2977 2978 2979 2980 2982 2983 2985 2987 2989 2992 2995 2999 3002 3003 3005 3006 3006 3007 3008 3008 3010 3012 3015 3017 3019 3022 3025 3027 3030 3034 3037 3039 3041 3043 3045 3047 3048 3048 3049 3050 3051 3051 3053 3054 3054 3056 3057 3059 3061 3063 3064 3066 3067 3068 3069 3071 3073
3016 3013 3011 3008 3006 3003 3000 2997 2995 2991 2989 2986 2985 2983 2981 2979 2978 2977 2976 2975 2974 2974 2974 2974 2974 2974 2975 2975 2975 2975 2976 2977 2978 2979 2980 2981 2982 2984 2987 2989 2992 2996 3000 3002 3003 3005 3006 3006 3006 3007 3007 3008 3010 3013 3015 3018 3020 3023 3027 3030 3033 3036 3038 3041 3043 3044 3046 3047 3047 3048 3049 3049 3050 3052 3052 3053 3054 3056 3058 3060 3062 3063 3065 3066 3068 3069 3071 3073
3016 3013 3012 3010 3007 3005 3002 2998 2995 2992 2990 2988 2986 2984 2982 2981 2979 2978 2977 2976 2975 2975 2975 2975 2975 2975 2976 2976 2975 2975 2976 2977 2978 2979 2979 2980 2982 2984 2987 2990 2993 2996 3000 3002 3003 3005 3006 3005 3006 3006 3007 3008 3010 3012 3014 3016 3018 3022 3025 3029 3032 3035 3037 3039 3041 3042 3044 3045 3045 3047 3048 3049 3049 3050 3051 3052 3053 3055 3056 3058 3060 3062 3064 3066 3067 3069 3071 3073
3017 3015 3012 3010 3008 3005 3003 2999 2996 2993 2990 2988 2987 2985 2983 2982 2981 2979 2977 2977 2976 2975 2976 2976 2975 2975 2975 2976 2975 2975 2976 2977 2978 2979 2979 2980 2981 2984 2986 2990 2993 2996 2998 3001 3003 3004 3005 3005 3005 3006 3007 3007 3009 3012 3014 3016 3019 3021 3023 3026 3029 3032 3034 3036 3038 3040 3042 3043 3044 3046 3047 3048 3049 3050 3050 3051 3052 3053 3055 3057 3059 3062 3064 3066 3068 3069 3071 3073
3019 3016 3013 3010 3008 3006 3003 3001 2998 2994 2991 2990 2988 2987 2985 2983 2982 2981 2979 2978 2977 2976 2977 2976 2976 2976 2976 2976 2975 2975 2975 2977 2978 2978 2979 2980 2982 2983 2985 2988 2993 2996 2998 3000 3002 3003 3004 3005 3006 3007 3007 3007 3009 3011 3013 3016 3019 3021 3021 3024 3027 3030 3033 3035 3037 3039 3041 3042 3043 3045 3046 3047 3048 3049 3050 3051 3051 3052 3053 3055 3058 3061 3064 3066 3068 3070 3072 3073